Regional Weather Roundup
Issued by NWS Glasgow, MT

Home | Current Version | Previous Version | Text Only | Print | Product List | Glossary On
Versions: 1 2 3 4 5 6 7 8 9 10 11 12 13 14 15 16 17 18 19 20 21 22 23 24 25 26 27
000
ASUS45 KGGW 241815
RWRGGW
HOURLY REGIONAL WEATHER ROUNDUP FOR NORTHEAST MONTANA
NATIONAL WEATHER SERVICE GLASGOW MONTANA
1200 PM MDT SUN JUL 24 2016

NOTE: "FAIR" INDICATES FEW OR NO CLOUDS BELOW 12,000 FEET WITH NO
SIGNIFICANT WEATHER AND/OR OBSTRUCTIONS TO VISISBILITY.

NORTHEAST MONTANA


CITY           SKY/WX    TMP DP  RH WIND       PRES   REMARKS
GLASGOW        SUNNY     83  52  34 S9        30.02F
6HR MIN TEMP:  56; 6HR MAX TEMP:  83;

PLENTYWOOD       N/A     77  47  34 W8          N/A
WOLF POINT     MOSUNNY   83  51  33 SW9       30.04F
JORDAN           N/A     86  46  24 W14       30.04F
WINNETT          N/A     81  40  23 SE3         N/A
SIDNEY         SUNNY     80  52  37 N6        30.05F
GLENDIVE       SUNNY     81  50  33 VRB5      30.08F
MALTA            N/A     80  55  42 W5          N/A
SCOBEY           N/A     95  68  41 W5        30.04S
OPHEIM           N/A     73  50  43 S5        29.81F

FORT PECK REPORTS


CITY           SKY/WX    TMP DP  RH WIND       PRES   REMARKS
FORT PECK        N/A     81  54  39 SE3         N/A
THE PINES        N/A     85  49  28 S3          N/A

SOUTHEAST MONTANA


CITY           SKY/WX    TMP DP  RH WIND       PRES   REMARKS
BILLINGS       SUNNY     78  43  28 SE3       30.11F
MILES CITY     SUNNY     84  45  25 S5        30.06F
BAKER          SUNNY     81  46  29 CALM      30.12F
LIVINGSTON     SUNNY     78  40  25 W7        30.15F

CENTRAL MONTANA


CITY           SKY/WX    TMP DP  RH WIND       PRES   REMARKS
HAVRE          SUNNY     79  45  29 SW14      30.04F
LEWISTOWN      SUNNY     75  41  29 VRB5      30.14F
GREAT FALLS    SUNNY     76  35  22 SW8       30.10F
CUT BANK       SUNNY     75  41  29 NW8       30.09F
HELENA         SUNNY     77  39  25 E3        30.13F
BUTTE          SUNNY     73  33  23 VRB6      30.22F
BOZEMAN        SUNNY     74  40  29 S6        30.18F

WESTERN MONTANA


CITY           SKY/WX    TMP DP  RH WIND       PRES   REMARKS
MISSOULA       SUNNY     72  41  32 CALM      30.15F
KALISPELL      NOT AVBL

NORTH DAKOTA


CITY           SKY/WX    TMP DP  RH WIND       PRES   REMARKS
WILLISTON      SUNNY     81  49  32 N9G18     30.05F
DICKINSON      SUNNY     78  49  35 NW8       30.08S
MINOT          MOSUNNY   81  55  40 W22G30    30.00S
BISMARCK       SUNNY     80  56  43 NW14      30.04F

SOUTHERN SASKATCHEWAN


CITY           SKY/WX    TMP DP  RH WIND       PRES   REMARKS
REGINA         MOSUNNY   72  55  56 W13       30.00S
ESTEVAN        MOSUNNY   75  57  53 NW14G25   30.01F
SWIFT CURRENT  SUNNY     72  55  56 VRB2      30.03S





USA.gov is the U.S. government's official web portal to all federal, state and local government web resources and services.